Location: Newark
(40.9833°N, 0.0333°W)
Time: 03:03:25
(UTC+00:00)

Transit 2A Rocket - Pass Details

Date: 27 October 2020
Orbit: 588 x 914 km, 66.7° (Epoch: 26 November)

Event Time Altitude Azimuth Distance (km) Brightness Sun altitude
Rises 08:03:47 0° 157° (SSE) 3,523 9.4 15.9°
Reaches altitude 10° 08:07:29 10° 135° (SE) 2,597 10.0 16.5°
Maximum altitude 08:10:38 15° 103° (ESE) 2,274 9.0 17.0°
Drops below altitude 10° 08:13:47 10° 71° (ENE) 2,585 8.3 17.5°
Sets 08:17:26 0° 49° (NE) 3,496 8.6 18.0°
